period_start,C,m1,H,J0,J1,J2,J3,J4,J5,JA,JB,JC,JD,JJ,JK,JN,#
2018-02-09 00:02:29,0.27,11.39,0.00,17.70,20.62,24.01,14.51,50.13,1033.70,2048.00,1168.85,1316.46,1511.05,599.53,616.65,30.10,0000 0000 0000 0000 000000
2018-02-09 00:07:30,0.27,11.40,0.00,17.72,20.63,24.02,14.41,50.17,1033.70,2047.98,1167.68,1315.47,1509.90,599.80,616.79,30.15,0000 0000 0000 0000 000000
2018-02-09 00:12:32,0.26,11.41,0.00,17.74,20.64,24.04,14.49,50.14,1033.68,2047.95,1166.51,1314.48,1508.79,600.33,617.33,30.20,0000 0000 0000 0000 000000
2018-02-09 00:17:33,0.26,11.43,0.00,17.73,20.67,24.06,14.46,50.16,1033.65,2047.95,1165.25,1313.50,1507.63,600.13,617.11,30.25,0000 0000 0000 0000 000000
2018-02-09 00:22:34,0.21,11.44,0.00,17.74,20.68,24.09,14.53,50.26,1033.62,2047.88,1164.05,1312.57,1506.51,599.75,616.82,30.30,0000 0000 0000 0000 000000
2018-02-09 00:27:35,0.23,11.45,0.00,17.75,20.69,24.09,14.47,50.13,1033.66,2047.59,1162.83,1311.63,1505.41,599.94,616.95,30.35,0000 0000 0000 0000 000000
2018-02-09 00:32:37,0.25,11.46,0.00,17.77,20.71,24.12,14.44,50.13,1033.68,2047.38,1161.66,1310.63,1504.33,599.63,616.56,30.41,0000 0000 0000 0000 000000
2018-02-09 00:37:38,0.20,11.47,0.00,17.79,20.73,24.12,14.47,50.21,1033.56,2047.13,1160.52,1309.67,1503.33,599.83,616.65,30.46,0000 0000 0000 0000 000000
2018-02-09 00:42:39,0.23,11.49,0.00,17.82,20.74,24.13,14.46,50.17,1033.46,2047.07,1159.36,1308.75,1502.08,600.14,616.84,30.51,0000 0000 0000 0000 000000
2018-02-09 00:47:40,0.21,11.50,0.00,17.85,20.76,24.15,14.43,50.23,1033.31,2047.06,1158.22,1307.88,1501.04,599.79,616.37,30.56,0000 0000 0000 0000 000000
2018-02-09 00:52:42,0.25,11.51,0.00,17.87,20.78,24.16,14.47,50.22,1033.25,2047.04,1157.05,1306.91,1499.97,600.08,616.53,30.61,0000 0000 0000 0000 000000
2018-02-09 00:57:43,0.27,11.52,0.00,17.88,20.79,24.18,14.43,50.25,1033.23,2047.02,1155.87,1305.94,1498.86,599.92,616.25,30.66,0000 0000 0000 0000 000000
2018-02-09 01:02:44,0.26,11.54,0.00,17.90,20.81,24.17,14.39,50.18,1033.24,2047.00,1154.73,1305.02,1497.82,599.59,616.02,30.71,0000 0000 0000 0000 000000
2018-02-09 01:07:45,0.27,11.55,0.00,17.92,20.83,24.19,14.44,50.19,1033.25,2047.00,1153.59,1304.11,1496.72,599.88,616.33,30.76,0000 0000 0000 0000 000000
2018-02-09 01:12:46,0.25,11.56,0.00,17.94,20.84,24.22,14.53,50.20,1033.24,2047.00,1152.48,1303.21,1495.69,600.18,616.48,30.81,0000 0000 0000 0000 000000
2018-02-09 01:17:47,0.25,11.57,0.00,17.98,20.86,24.23,14.45,50.27,1033.24,2047.00,1151.29,1302.26,1494.60,599.93,616.20,30.86,0000 0000 0000 0000 000000
2018-02-09 01:22:49,0.24,11.59,0.00,17.99,20.88,24.25,14.48,50.27,1033.24,2047.00,1150.29,1301.35,1493.55,599.99,616.25,30.91,0000 0000 0000 0000 000000
2018-02-09 01:27:50,0.24,11.60,0.00,18.00,20.89,24.26,14.42,50.27,1033.22,2047.00,1149.15,1300.47,1492.46,599.59,615.79,30.96,0000 0000 0000 0000 000000
2018-02-09 01:32:51,0.24,11.61,0.00,18.03,20.91,24.30,14.45,50.16,1033.22,2047.00,1148.06,1299.55,1491.41,599.90,616.04,31.01,0000 0000 0000 0000 000000
2018-02-09 01:37:52,0.22,11.62,0.00,18.03,20.92,24.30,14.40,50.08,1033.22,2047.00,1146.99,1298.72,1490.40,600.07,616.19,31.06,0000 0000 0000 0000 000000
2018-02-09 01:42:53,0.26,11.64,0.00,18.04,20.94,24.32,14.41,50.17,1033.21,2047.00,1145.84,1297.78,1489.34,599.69,615.74,31.11,0000 0000 0000 0000 000000
2018-02-09 01:47:55,0.26,11.65,0.00,18.08,20.95,24.33,14.47,50.23,1033.21,2047.00,1144.63,1296.88,1488.26,600.33,616.39,31.16,0000 0000 0000 0000 000000
2018-02-09 01:52:56,0.25,11.66,0.00,18.11,20.97,24.35,14.42,50.25,1033.17,2047.00,1143.45,1295.96,1487.26,599.88,615.79,31.21,0000 0000 0000 0000 000000
2018-02-09 01:57:58,0.24,11.67,0.00,18.13,20.99,24.36,14.46,50.24,1033.20,2047.00,1142.34,1295.04,1486.16,600.10,615.96,31.26,0000 0000 0000 0000 000000
2018-02-09 02:02:59,0.25,11.69,0.00,18.17,21.01,24.37,14.43,50.21,1033.19,2046.99,1141.20,1294.09,1485.09,599.97,615.78,31.31,0000 0000 0000 0000 000000
2018-02-09 02:08:00,0.25,11.70,0.00,18.23,21.02,24.39,14.46,50.25,1033.21,2046.98,1140.05,1293.19,1484.07,600.17,615.68,31.36,0000 0000 0000 0000 000000
2018-02-09 02:13:01,0.24,11.71,0.00,18.29,21.04,24.40,14.44,50.16,1033.20,2046.96,1138.97,1292.27,1483.02,600.01,615.58,31.41,0000 0000 0000 0000 000000
2018-02-09 02:18:02,0.26,11.72,0.00,18.30,21.07,24.42,14.38,50.22,1033.18,2046.91,1137.80,1291.42,1481.96,600.07,615.59,31.46,0000 0000 0000 0000 000000
2018-02-09 02:23:03,0.26,11.74,0.00,18.31,21.08,24.44,14.41,50.28,1033.10,2046.82,1136.66,1290.52,1480.93,599.81,615.17,31.51,0000 0000 0000 0000 000000
2018-02-09 02:28:05,0.19,11.75,0.00,18.34,21.11,24.46,14.45,50.21,1032.98,2046.43,1135.55,1289.56,1479.86,600.14,615.39,31.56,0000 0000 0000 0000 000000
2018-02-09 02:33:06,0.20,11.76,0.00,18.37,21.13,24.49,14.37,50.20,1032.86,2046.15,1134.41,1288.67,1478.77,599.91,615.04,31.61,0000 0000 0000 0000 000000
2018-02-09 02:38:08,0.23,11.77,0.00,18.40,21.15,24.51,14.33,50.32,1032.83,2046.05,1133.31,1287.78,1477.72,599.63,614.75,31.66,0000 0000 0000 0000 000000
2018-02-09 02:43:09,0.23,11.78,0.00,18.42,21.18,24.53,14.46,50.35,1032.87,2046.02,1132.22,1286.90,1476.72,600.12,615.16,31.71,0000 0000 0000 0000 000000
2018-02-09 02:48:10,0.24,11.80,0.00,18.44,21.20,24.54,14.47,50.33,1032.82,2046.00,1131.10,1285.98,1475.62,599.83,614.85,31.76,0000 0000 0000 0000 000000
2018-02-09 02:53:12,0.26,11.81,0.00,18.47,21.23,24.57,14.37,50.23,1032.75,2046.01,1129.95,1285.06,1474.64,600.01,615.00,31.81,0000 0000 0000 0000 000000
2018-02-09 02:58:14,0.27,11.82,0.00,18.50,21.25,24.59,14.37,50.23,1032.77,2046.00,1128.83,1284.14,1473.56,600.09,615.03,31.86,0000 0000 0000 0000 000000
2018-02-09 03:03:15,0.24,11.83,0.00,18.52,21.28,24.60,14.41,50.24,1032.75,2046.00,1127.80,1283.23,1472.55,600.21,614.90,31.91,0000 0000 0000 0000 000000
2018-02-09 03:08:16,0.27,11.85,0.00,18.56,21.31,24.64,14.42,50.29,1032.73,2045.99,1126.66,1282.39,1471.54,600.22,614.82,31.96,0000 0000 0000 0000 000000
2018-02-09 03:13:17,0.26,11.86,0.00,18.59,21.33,24.68,14.42,50.33,1032.73,2045.97,1125.53,1281.47,1470.58,600.30,614.94,32.01,0000 0000 0000 0000 000000
2018-02-09 03:18:19,0.23,11.87,0.00,18.62,21.36,24.69,14.48,50.35,1032.73,2045.80,1124.38,1280.50,1469.49,600.47,614.92,32.06,0000 0000 0000 0000 000000
2018-02-09 03:23:20,0.19,11.88,0.00,18.64,21.38,24.73,14.35,50.37,1032.72,2045.38,1123.23,1279.56,1468.37,599.88,614.35,32.11,0000 0000 0000 0000 000000
2018-02-09 03:28:21,0.18,11.89,0.00,18.66,21.41,24.74,14.43,50.34,1032.71,2045.11,1122.04,1278.73,1467.33,600.30,614.78,32.16,0000 0000 0000 0000 000000
2018-02-09 03:33:22,0.28,11.91,0.00,18.70,21.43,24.75,14.40,50.37,1032.72,2045.06,1120.82,1277.73,1466.18,600.11,614.58,32.21,0000 0000 0000 0000 000000
2018-02-09 03:38:24,0.25,11.92,0.00,18.73,21.46,24.77,14.40,50.22,1032.73,2045.00,1119.72,1276.77,1465.02,600.01,614.27,32.26,0000 0000 0000 0000 000000
2018-02-09 03:43:25,0.26,11.93,0.00,18.75,21.48,24.82,14.42,50.26,1032.71,2045.00,1118.54,1275.86,1463.91,599.56,613.84,32.31,0000 0000 0000 0000 000000
2018-02-09 03:48:26,0.27,11.95,0.00,18.77,21.50,24.85,14.43,50.24,1032.71,2044.99,1117.38,1274.87,1462.79,600.15,614.47,32.36,0000 0000 0000 0000 000000
2018-02-09 03:53:27,0.26,11.96,0.00,18.81,21.53,24.88,14.32,50.31,1032.70,2044.98,1116.10,1273.88,1461.62,599.82,613.99,32.42,0000 0000 0000 0000 000000
2018-02-09 03:58:29,0.28,11.97,0.00,18.83,21.55,24.89,14.45,50.27,1032.71,2044.97,1114.87,1272.90,1460.51,600.27,614.32,32.47,0000 0000 0000 0000 000000
2018-02-09 04:03:30,0.28,11.99,0.00,18.85,21.57,24.92,14.44,50.34,1032.67,2044.92,1113.65,1271.93,1459.43,600.36,614.35,32.52,0000 0000 0000 0000 000000
2018-02-09 04:08:31,0.24,12.00,0.00,18.88,21.60,24.95,14.38,50.22,1032.57,2044.67,1112.42,1270.86,1458.21,600.13,614.10,32.57,0000 0000 0000 0000 000000
2018-02-09 04:13:32,0.22,12.01,0.00,18.92,21.62,24.97,14.31,50.35,1032.57,2044.26,1111.10,1269.76,1456.97,599.56,613.41,32.62,0000 0000 0000 0000 000000
2018-02-09 04:18:34,0.23,12.03,0.00,18.95,21.65,25.02,14.33,50.15,1032.66,2044.11,1109.95,1268.86,1455.88,599.72,613.61,32.67,0000 0000 0000 0000 000000
2018-02-09 04:23:35,0.28,12.04,0.00,18.97,21.68,25.04,14.39,50.17,1032.59,2044.05,1108.79,1267.92,1454.79,600.35,613.97,32.72,0000 0000 0000 0000 000000
2018-02-09 04:28:36,0.29,12.05,0.00,18.98,21.71,25.08,14.38,50.25,1032.65,2044.01,1107.59,1266.93,1453.65,599.77,613.52,32.77,0000 0000 0000 0000 000000
2018-02-09 04:33:37,0.27,12.07,0.00,19.01,21.75,25.13,14.42,50.27,1032.60,2044.00,1106.45,1265.96,1452.53,600.01,613.82,32.82,0000 0000 0000 0000 000000
2018-02-09 04:38:39,0.26,12.08,0.00,19.02,21.78,25.14,14.36,50.19,1032.48,2043.99,1105.34,1264.98,1451.38,600.04,613.59,32.87,0000 0000 0000 0000 000000
2018-02-09 04:43:40,0.25,12.10,0.00,19.05,21.80,25.18,14.36,50.14,1032.43,2043.95,1104.07,1264.05,1450.29,599.38,612.97,32.92,0000 0000 0000 0000 000000
2018-02-09 04:48:41,0.19,12.11,0.00,19.09,21.84,25.22,14.30,50.08,1032.31,2043.65,1102.90,1263.15,1449.22,600.38,613.74,32.97,0000 0000 0000 0000 000000
2018-02-09 04:53:42,0.22,12.12,0.00,19.09,21.87,25.26,14.33,50.08,1032.33,2043.20,1101.81,1262.19,1448.20,600.26,613.66,33.02,0000 0000 0000 0000 000000
2018-02-09 04:58:44,0.26,12.13,0.00,19.13,21.90,25.29,14.35,50.17,1032.32,2043.04,1100.70,1261.30,1447.14,600.25,613.42,33.07,0000 0000 0000 0000 000000
2018-02-09 05:03:45,0.27,12.14,0.00,19.15,21.93,25.32,14.26,50.09,1032.29,2043.00,1099.60,1260.40,1446.06,599.80,612.97,33.12,0000 0000 0000 0000 000000
2018-02-09 05:08:47,0.26,12.15,0.00,19.17,21.97,25.36,14.35,50.23,1032.27,2043.00,1098.45,1259.53,1444.96,600.02,613.20,33.17,0000 0000 0000 0000 000000
2018-02-09 05:13:48,0.26,12.17,0.00,19.19,21.99,25.38,14.37,50.21,1032.25,2042.99,1097.27,1258.56,1443.89,600.15,613.17,33.22,0000 0000 0000 0000 000000
2018-02-09 05:18:49,0.31,12.18,0.00,19.23,22.02,25.40,14.32,50.23,1032.24,2042.99,1095.83,1257.55,1442.86,599.99,613.03,33.27,0000 0000 0000 0000 000000
2018-02-09 05:23:51,0.13,12.19,0.00,19.24,22.04,25.42,14.41,50.38,1032.24,2042.99,1094.91,1256.94,1442.03,599.82,612.79,33.32,0000 0000 0000 0000 000000
2018-02-09 05:28:52,0.23,12.20,0.00,19.25,22.07,25.47,14.41,50.38,1032.24,2042.98,1094.06,1256.12,1441.33,600.26,613.05,33.37,0000 0000 0000 0000 000000
2018-02-09 05:33:54,0.14,12.21,0.00,19.26,22.09,25.49,14.37,50.38,1032.24,2042.97,1093.36,1255.81,1440.82,600.01,612.99,33.43,0000 0000 0000 0000 000000
2018-02-09 05:38:55,0.16,12.22,0.00,19.28,22.11,25.52,14.40,50.34,1032.24,2042.96,1092.74,1255.05,1440.05,599.99,612.85,33.48,0000 0000 0000 0000 000000
2018-02-09 05:43:56,0.14,12.23,0.00,19.30,22.13,25.54,14.35,50.45,1032.25,2042.84,1092.01,1254.61,1439.41,599.97,612.73,33.53,0000 0000 0000 0000 000000
2018-02-09 05:48:57,0.13,12.24,0.00,19.29,22.15,25.56,14.33,50.34,1032.26,2042.69,1091.20,1254.01,1438.82,599.87,612.63,33.58,0000 0000 0000 0000 000000
2018-02-09 05:53:59,0.12,12.24,0.00,19.30,22.17,25.58,14.31,50.26,1032.27,2042.15,1090.68,1253.34,1437.84,599.83,612.56,33.63,0000 0000 0000 0000 000000
2018-02-09 05:59:00,0.24,12.25,0.00,19.30,22.19,25.61,14.38,50.34,1032.26,2042.05,1089.57,1252.52,1437.01,600.09,613.02,33.68,0000 0000 0000 0000 000000
2018-02-09 06:04:01,0.12,12.26,0.00,19.33,22.21,25.64,14.29,50.17,1032.33,2042.03,1088.84,1251.99,1436.20,599.80,612.65,33.73,0000 0000 0000 0000 000000
2018-02-09 06:09:03,0.20,12.27,0.00,19.33,22.23,25.64,14.31,50.17,1032.31,2042.01,1088.04,1251.23,1435.67,599.73,612.54,33.78,0000 0000 0000 0000 000000
2018-02-09 06:14:04,0.15,12.28,0.00,19.35,22.25,25.67,14.40,50.17,1032.27,2042.00,1087.21,1250.86,1434.99,600.62,613.29,33.83,0000 0000 0000 0000 000000
2018-02-09 06:19:05,0.15,12.29,0.00,19.36,22.27,25.69,14.39,50.28,1032.29,2042.00,1086.89,1250.08,1434.20,599.99,612.81,33.88,0000 0000 0000 0000 000000
2018-02-09 06:24:06,0.15,12.29,0.00,19.36,22.29,25.72,14.38,50.23,1032.30,2042.00,1086.07,1249.79,1433.74,600.19,612.93,33.93,0000 0000 0000 0000 000000
2018-02-09 06:29:07,0.19,12.30,0.00,19.37,22.31,25.73,14.36,50.20,1032.28,2041.99,1085.53,1249.03,1432.86,600.23,613.03,33.98,0000 0000 0000 0000 000000
2018-02-09 06:34:08,0.19,12.31,0.00,19.36,22.33,25.76,14.46,50.32,1032.32,2041.97,1084.79,1248.29,1432.05,600.14,612.76,34.03,0000 0000 0000 0000 000000
2018-02-09 06:39:10,0.13,12.32,0.00,19.37,22.34,25.79,14.39,50.17,1032.52,2041.95,1083.97,1247.93,1431.46,600.26,613.05,34.08,0000 0000 0000 0000 000000
2018-02-09 06:44:11,0.20,12.33,0.00,19.37,22.37,25.79,14.33,50.20,1032.59,2041.84,1083.10,1247.10,1430.80,600.20,613.09,34.13,0000 0000 0000 0000 000000
2018-02-09 06:49:13,0.13,12.34,0.00,19.37,22.38,25.81,14.37,50.29,1032.59,2041.49,1082.34,1246.54,1430.03,599.89,612.87,34.18,0000 0000 0000 0000 000000
2018-02-09 06:54:14,0.12,12.34,0.00,19.39,22.39,25.83,14.29,50.24,1032.60,2041.34,1081.73,1246.00,1429.28,599.67,612.76,34.23,0000 0000 0000 0000 000000
2018-02-09 06:59:16,0.14,12.35,0.00,19.40,22.42,25.83,14.28,50.19,1032.50,2041.14,1080.98,1245.28,1428.72,599.51,612.28,34.28,0000 0000 0000 0000 000000
2018-02-09 07:04:17,0.19,12.36,0.00,19.42,22.43,25.84,14.48,50.31,1032.36,2041.05,1080.11,1244.67,1427.99,600.21,612.72,34.34,0000 0000 0000 0000 000000
2018-02-09 07:09:18,0.19,12.37,0.00,19.44,22.44,25.85,14.37,50.34,1032.41,2041.01,1079.28,1244.00,1427.12,600.09,612.74,34.39,0000 0000 0000 0000 000000
2018-02-09 07:14:20,0.25,12.38,0.00,19.44,22.46,25.87,14.33,50.36,1032.53,2041.01,1078.40,1243.25,1426.38,599.97,612.70,34.44,0000 0000 0000 0000 000000
2018-02-09 07:19:21,0.20,12.39,0.00,19.43,22.47,25.89,14.35,50.22,1032.44,2041.01,1077.55,1242.59,1425.61,599.94,612.64,34.49,0000 0000 0000 0000 000000
2018-02-09 07:24:22,0.13,12.40,0.00,19.43,22.49,25.90,14.37,50.21,1032.49,2041.00,1076.71,1241.96,1424.92,600.25,612.93,34.54,0000 0000 0000 0000 000000
2018-02-09 07:29:23,0.19,12.41,0.00,19.46,22.50,25.92,14.38,50.20,1032.62,2041.00,1075.96,1241.17,1424.08,600.05,612.89,34.59,0000 0000 0000 0000 000000
2018-02-09 07:34:25,0.22,12.42,0.00,19.45,22.52,25.94,14.44,50.35,1032.64,2041.00,1075.10,1240.65,1423.33,599.97,612.82,34.64,0000 0000 0000 0000 000000
2018-02-09 07:39:26,0.17,12.43,0.00,19.44,22.52,25.95,14.42,50.27,1032.71,2041.00,1074.32,1240.01,1422.62,600.20,612.97,34.69,0000 0000 0000 0000 000000
2018-02-09 07:44:27,0.17,12.44,0.00,19.44,22.54,25.97,14.37,50.25,1032.72,2041.00,1073.71,1239.40,1421.89,599.66,612.60,34.74,0000 0000 0000 0000 000000
2018-02-09 07:49:28,0.16,12.45,0.00,19.47,22.55,25.97,14.35,50.25,1032.73,2040.98,1072.86,1238.80,1421.05,600.05,612.73,34.79,0000 0000 0000 0000 000000
2018-02-09 07:54:30,0.20,12.46,0.00,19.47,22.57,25.99,14.32,50.29,1032.73,2040.97,1072.03,1238.03,1420.27,599.92,612.69,34.84,0000 0000 0000 0000 000000
2018-02-09 07:59:31,0.22,12.47,0.00,19.47,22.58,26.01,14.38,50.27,1032.73,2040.96,1071.21,1237.45,1419.66,600.23,613.02,34.89,0000 0000 0000 0000 000000
2018-02-09 08:04:32,0.14,12.48,0.00,19.47,22.59,26.02,14.34,50.23,1032.73,2040.93,1070.46,1236.94,1418.97,599.87,612.63,34.94,0000 0000 0000 0000 000000
2018-02-09 08:09:34,0.17,12.49,0.00,19.48,22.60,26.04,14.42,50.26,1032.72,2040.88,1069.85,1236.14,1418.13,600.20,612.86,34.99,0000 0000 0000 0000 000000
2018-02-09 08:14:35,0.10,12.49,0.00,19.49,22.62,26.05,14.38,50.32,1032.72,2040.49,1069.05,1235.74,1417.49,600.45,613.25,35.04,0000 0000 0000 0000 000000
2018-02-09 08:19:36,0.14,12.50,0.00,19.49,22.62,26.06,14.43,50.32,1032.73,2040.13,1068.30,1235.02,1416.83,600.32,613.14,35.09,0000 0000 0000 0000 000000
2018-02-09 08:24:38,0.18,12.50,0.00,19.49,22.64,26.05,14.37,50.32,1032.73,2040.10,1067.72,1234.47,1416.04,600.17,612.86,35.14,0000 0000 0000 0000 000000
2018-02-09 08:29:39,0.10,12.51,0.00,19.49,22.64,26.08,14.43,50.25,1032.73,2040.05,1066.99,1233.98,1415.37,600.15,612.92,35.19,0000 0000 0000 0000 000000
2018-02-09 08:34:40,0.23,12.52,0.00,19.51,22.66,26.09,14.36,50.33,1032.73,2040.02,1066.16,1233.20,1414.75,599.68,612.35,35.24,0000 0000 0000 0000 000000
2018-02-09 08:39:41,0.16,12.53,0.00,19.52,22.67,26.10,14.42,50.31,1032.63,2040.01,1065.47,1232.76,1413.99,600.14,612.77,35.30,0000 0000 0000 0000 000000
2018-02-09 08:44:42,0.17,12.54,0.00,19.52,22.67,26.10,14.31,50.41,1032.50,2040.00,1064.78,1232.03,1413.14,599.58,612.20,35.35,0000 0000 0000 0000 000000
2018-02-09 08:49:44,0.21,12.55,0.00,19.52,22.69,26.11,14.37,50.22,1032.47,2040.00,1063.98,1231.44,1412.45,599.92,612.54,35.40,0000 0000 0000 0000 000000
2018-02-09 08:54:45,0.14,12.56,0.00,19.53,22.69,26.11,14.45,50.26,1032.58,2040.00,1063.12,1230.92,1411.77,600.65,613.29,35.45,0000 0000 0000 0000 000000
2018-02-09 08:59:46,0.23,12.57,0.00,19.53,22.70,26.13,14.42,50.34,1032.67,2040.00,1062.38,1230.12,1411.00,600.15,612.67,35.50,0000 0000 0000 0000 000000
2018-02-09 09:04:47,0.22,12.58,0.00,19.53,22.71,26.14,14.33,50.29,1032.51,2039.99,1061.63,1229.53,1410.16,599.84,612.25,35.55,0000 0000 0000 0000 000000
2018-02-09 09:09:49,0.14,12.59,0.00,19.54,22.72,26.15,14.31,50.27,1032.30,2039.99,1060.80,1228.96,1409.36,599.86,612.23,35.60,0000 0000 0000 0000 000000
2018-02-09 09:14:50,0.21,12.60,0.00,19.52,22.72,26.15,14.43,50.35,1032.33,2039.97,1059.98,1228.12,1408.62,600.16,612.60,35.65,0000 0000 0000 0000 000000
2018-02-09 09:19:51,0.21,12.61,0.00,19.52,22.73,26.15,14.42,50.27,1032.29,2039.98,1059.11,1227.50,1407.89,600.11,612.53,35.70,0000 0000 0000 0000 000000
2018-02-09 09:24:53,0.19,12.62,0.00,19.52,22.74,26.18,14.30,50.16,1032.27,2039.96,1058.25,1226.88,1407.07,599.82,612.25,35.75,0000 0000 0000 0000 000000
2018-02-09 09:29:54,0.23,12.63,0.00,19.52,22.74,26.18,14.39,50.33,1032.37,2039.91,1057.37,1226.08,1406.21,600.05,612.32,35.80,0000 0000 0000 0000 000000
2018-02-09 09:34:55,0.21,12.64,0.00,19.52,22.75,26.18,14.38,50.22,1032.45,2039.87,1056.61,1225.47,1405.51,600.32,612.90,35.85,0000 0000 0000 0000 000000
2018-02-09 09:39:56,0.13,12.65,0.00,19.53,22.77,26.19,14.29,50.16,1032.45,2039.75,1055.72,1224.89,1404.75,599.83,612.29,35.90,0000 0000 0000 0000 000000
2018-02-09 09:44:58,0.14,12.66,0.00,19.54,22.77,26.21,14.35,50.20,1032.61,2039.47,1054.87,1224.07,1403.96,599.92,612.56,35.95,0000 0000 0000 0000 000000
2018-02-09 09:49:59,0.23,12.67,0.00,19.56,22.77,26.20,14.34,50.19,1032.72,2039.42,1054.00,1223.47,1403.10,599.85,612.46,36.00,0000 0000 0000 0000 000000
2018-02-09 09:55:00,0.16,12.68,0.00,19.57,22.78,26.21,14.35,50.19,1032.71,2039.20,1053.09,1222.85,1402.34,599.61,612.04,36.05,0000 0000 0000 0000 000000
2018-02-09 10:00:01,0.23,12.69,0.00,19.57,22.79,26.22,14.37,50.27,1032.57,2039.10,1052.22,1222.05,1401.56,600.09,612.58,36.10,0000 0000 0000 0000 000000
2018-02-09 10:05:03,0.22,12.70,0.00,19.58,22.79,26.23,14.33,50.25,1032.41,2039.15,1051.42,1221.42,1400.82,599.67,611.95,36.15,0000 0000 0000 0000 000000
2018-02-09 10:10:04,0.16,12.71,0.00,19.59,22.79,26.24,14.32,50.28,1032.42,2039.09,1050.57,1220.85,1400.02,599.88,612.31,36.20,0000 0000 0000 0000 000000
2018-02-09 10:15:05,0.21,12.72,0.00,19.59,22.80,26.22,14.26,50.09,1032.40,2039.04,1049.70,1220.05,1399.17,599.60,611.88,36.26,0000 0000 0000 0000 000000
2018-02-09 10:20:07,0.21,12.73,0.00,19.58,22.82,26.24,14.39,50.17,1032.53,2039.04,1048.92,1219.38,1398.36,600.32,612.75,36.31,0000 0000 0000 0000 000000
2018-02-09 10:25:08,0.17,12.74,0.00,19.58,22.82,26.26,14.39,50.19,1032.67,2039.02,1048.05,1218.83,1397.64,600.09,612.54,36.36,0000 0000 0000 0000 000000
2018-02-09 10:30:10,0.21,12.75,0.00,19.58,22.82,26.26,14.36,50.15,1032.44,2039.02,1047.18,1218.05,1396.91,600.46,612.79,36.41,0000 0000 0000 0000 000000
2018-02-09 10:35:11,0.25,12.76,0.00,19.57,22.83,26.27,14.38,50.21,1032.48,2039.01,1046.32,1217.38,1396.05,599.71,612.13,36.46,0000 0000 0000 0000 000000
2018-02-09 10:40:13,0.18,12.77,0.00,19.57,22.84,26.27,14.43,50.34,1032.64,2039.02,1045.52,1216.83,1395.25,599.85,612.66,36.51,0000 0000 0000 0000 000000
2018-02-09 10:45:14,0.21,12.78,0.00,19.57,22.84,26.26,14.37,50.13,1032.50,2039.01,1044.70,1216.05,1394.44,600.18,612.58,36.56,0000 0000 0000 0000 000000
2018-02-09 10:50:16,0.20,12.79,0.00,19.58,22.85,26.27,14.35,50.15,1032.30,2039.00,1043.87,1215.39,1393.69,599.84,612.24,36.61,0000 0000 0000 0000 000000
2018-02-09 10:55:17,0.13,12.80,0.00,19.59,22.85,26.29,14.36,50.24,1032.27,2039.00,1043.03,1214.98,1392.94,599.85,612.15,36.66,0000 0000 0000 0000 000000
2018-02-09 11:00:18,0.26,12.81,0.00,19.60,22.87,26.28,14.38,50.20,1032.28,2039.00,1042.13,1214.17,1392.09,600.11,612.45,36.71,0000 0000 0000 0000 000000
2018-02-09 11:05:19,0.23,12.83,0.00,19.59,22.87,26.28,14.28,50.28,1032.25,2039.00,1041.26,1213.61,1391.33,599.74,612.06,36.76,0000 0000 0000 0000 000000
2018-02-09 11:10:20,0.17,12.83,0.00,19.60,22.87,26.28,14.33,50.25,1032.24,2039.00,1040.55,1212.99,1390.62,599.56,611.92,36.81,0000 0000 0000 0000 000000
2018-02-09 11:15:21,0.21,12.85,0.00,19.58,22.87,26.29,14.32,50.24,1032.24,2039.00,1039.69,1212.24,1389.87,599.67,611.93,36.86,0000 0000 0000 0000 000000
2018-02-09 11:20:23,0.17,12.85,0.00,19.58,22.87,26.29,14.42,50.34,1032.24,2039.00,1038.93,1211.71,1389.05,600.33,612.58,36.91,0000 0000 0000 0000 000000
2018-02-09 11:25:24,0.20,12.87,0.00,19.58,22.87,26.28,14.31,50.15,1032.24,2039.00,1038.08,1211.03,1388.26,599.58,611.87,36.96,0000 0000 0000 0000 000000
2018-02-09 11:30:25,0.25,12.88,0.00,19.58,22.88,26.30,14.42,50.18,1032.24,2039.00,1037.22,1210.29,1387.56,600.00,612.25,37.01,0000 0000 0000 0000 000000
2018-02-09 11:35:27,0.16,12.88,0.00,19.57,22.89,26.29,14.36,50.15,1032.24,2039.00,1036.49,1209.81,1386.86,599.97,612.25,37.06,0000 0000 0000 0000 000000
2018-02-09 11:40:28,0.21,12.90,0.00,19.57,22.89,26.29,14.36,50.20,1032.24,2039.00,1035.63,1209.06,1386.04,599.73,612.05,37.11,0000 0000 0000 0000 000000
2018-02-09 11:45:29,0.19,12.91,0.00,19.57,22.89,26.29,14.41,50.21,1032.24,2038.99,1034.88,1208.42,1385.20,599.90,612.02,37.17,0000 0000 0000 0000 000000
2018-02-09 11:50:31,0.17,12.92,0.00,19.58,22.89,26.31,14.37,50.28,1032.24,2038.98,1034.03,1207.91,1384.51,600.16,612.44,37.22,0000 0000 0000 0000 000000
2018-02-09 11:55:32,0.22,12.93,0.00,19.58,22.89,26.30,14.35,50.39,1032.24,2038.98,1033.18,1207.10,1383.88,599.79,612.12,37.27,0000 0000 0000 0000 000000
2018-02-09 12:00:34,0.23,12.94,0.00,19.57,22.89,26.30,14.32,50.39,1032.22,2038.99,1032.45,1206.59,1383.07,599.58,611.85,37.32,0000 0000 0000 0000 000000
2018-02-09 12:05:35,0.16,12.95,0.00,19.57,22.89,26.31,14.43,50.28,1032.22,2038.99,1031.68,1205.99,1382.29,600.46,612.76,37.37,0000 0000 0000 0000 000000
2018-02-09 12:10:36,0.18,12.96,0.00,19.56,22.89,26.30,14.33,50.27,1032.21,2038.99,1030.91,1205.25,1381.63,600.19,612.48,37.42,0000 0000 0000 0000 000000
2018-02-09 12:15:37,0.18,12.97,0.00,19.54,22.89,26.30,14.34,50.33,1032.14,2038.97,1030.05,1204.74,1380.88,600.29,612.59,37.47,0000 0000 0000 0000 000000
2018-02-09 12:20:39,0.23,12.98,0.00,19.54,22.89,26.32,14.35,50.38,1032.21,2038.98,1029.17,1204.02,1380.07,599.86,612.22,37.52,0000 0000 0000 0000 000000
2018-02-09 12:25:40,0.24,12.99,0.00,19.55,22.89,26.31,14.37,50.42,1032.16,2038.99,1028.48,1203.44,1379.37,600.09,612.37,37.57,0000 0000 0000 0000 000000
2018-02-09 12:30:42,0.13,13.00,0.00,19.54,22.89,26.31,14.37,50.36,1032.16,2038.99,1027.71,1202.95,1378.74,599.63,612.00,37.62,0000 0000 0000 0000 000000
2018-02-09 12:35:43,0.18,13.01,0.00,19.52,22.89,26.34,14.30,50.33,1032.21,2038.97,1026.96,1202.12,1377.99,599.71,612.23,37.67,0000 0000 0000 0000 000000
2018-02-09 12:40:45,0.23,13.02,0.00,19.53,22.89,26.32,14.33,50.27,1032.08,2038.96,1026.09,1201.61,1377.16,600.06,612.49,37.72,0000 0000 0000 0000 000000
2018-02-09 12:45:46,0.19,13.03,0.00,19.53,22.89,26.31,14.40,50.48,1031.85,2038.98,1025.30,1201.01,1376.53,600.20,612.45,37.77,0000 0000 0000 0000 000000
2018-02-09 12:50:47,0.21,13.04,0.00,19.54,22.89,26.31,14.40,50.40,1031.83,2038.98,1024.55,1200.27,1375.87,600.16,612.26,37.82,0000 0000 0000 0000 000000